Location: Bakhuizen
(52.8696°N, 5.4575°E)
Time: 01:35:42
(UTC+00:00)

Cosmos 1833 - Pass Details

Date: 02 October 2021
Orbit: 834 x 864 km, 70.9° (Epoch: 26 October)

Event Time Altitude Azimuth Distance (km) Brightness Sun altitude
Rises 19:39:32 0° 315° (NW) 3,395 8.6 -22.5°
Reaches altitude 10° 19:43:39 10° 286° (WNW) 2,453 7.7 -23.1°
Maximum altitude 19:45:39 12° 265° (W) 2,309 7.2 -23.3°
Drops below altitude 10° 19:47:40 10° 244° (WSW) 2,446 7.0 -23.6°
Sets 19:51:46 0° 214° (SW) 3,376 7.4 -24.1°
